Theta_e
319 319 319 319 320 319 319 319 319 319 320 320 320 320 319 321 322 318 309 316 317 333 333 319 314 313 313 311 311 309 308 305 305 310 314 320 317 320 321 321 324 326 328 334 340
318 318 319 319 319 319 319 319 319 319 319 320 320 320 320 321 316 311 324 329 337 336 316 313 309 311 310 309 310 309 307 306 308 314 313 320 318 319 319 320 319 324 333 338 338
317 318 318 319 318 318 318 319 318 319 320 319 319 319 321 321 314 317 336 333 335 328 314 313 312 310 308 308 307 306 306 306 308 310 315 315 317 319 318 317 320 321 330 335 334
317 317 318 317 317 318 318 318 318 319 319 319 318 319 321 319 307 320 339 338 338 314 312 311 310 308 306 306 307 304 307 306 308 308 311 312 318 316 319 320 324 327 334 335 332
316 317 317 317 318 318 317 318 318 318 318 318 317 319 318 308 310 330 341 337 320 313 311 309 308 307 304 304 304 304 307 308 308 307 307 311 314 316 318 321 322 332 335 333 333
316 316 316 317 317 317 317 317 317 317 317 318 317 320 315 305 318 338 328 318 315 312 309 310 309 309 307 306 305 307 306 308 309 309 311 308 311 315 317 323 325 331 333 334 334
316 316 316 316 316 317 317 316 316 317 319 318 319 320 311 306 319 331 319 315 313 312 309 310 312 309 308 305 307 307 305 309 309 316 317 316 311 312 317 323 325 328 331 333 335
315 315 315 315 316 316 317 316 317 319 319 320 323 319 307 314 319 321 312 310 312 312 311 311 312 309 308 308 306 305 306 303 308 317 317 317 309 318 319 321 323 326 329 331 333
315 314 314 315 315 316 315 315 320 321 323 324 319 314 305 320 316 316 312 310 308 310 312 312 311 306 306 304 303 303 300 302 305 309 316 316 312 319 319 320 320 324 327 328 330
315 314 313 314 315 314 313 314 322 323 323 322 320 307 313 313 318 313 312 311 310 308 307 308 307 306 304 304 296 298 299 300 300 306 306 307 310 314 317 318 319 322 324 326 327
315 314 313 313 314 313 313 312 311 308 310 305 305 305 307 312 313 313 312 312 313 309 305 304 303 300 303 302 302 300 299 299 303 306 303 305 307 310 315 318 318 319 322 323 325
314 314 313 313 313 312 311 311 309 309 304 308 307 305 307 310 306 309 314 312 310 305 303 303 301 305 303 301 301 300 299 301 304 303 304 306 308 312 315 316 318 319 320 322 324
313 313 313 312 311 311 309 310 312 309 303 304 305 305 305 308 305 308 314 310 308 304 302 301 302 302 302 301 300 301 300 301 301 303 304 307 305 308 316 315 317 319 321 322 323
312 312 312 310 312 308 311 311 312 309 300 304 307 307 306 306 305 310 315 312 305 306 301 302 304 301 301 301 303 300 304 302 300 300 299 306 296 305 310 314 314 318 319 320 322
311 312 311 310 307 308 312 312 312 308 294 307 305 311 305 305 306 306 311 310 306 304 303 302 302 301 301 303 304 302 303 302 300 301 300 300 299 303 305 307 311 317 318 320 322
311 311 310 308 307 310 311 311 309 298 291 302 305 304 303 304 305 307 308 311 309 305 304 304 305 305 306 306 305 304 302 301 300 300 296 299 299 301 304 307 309 312 316 319 320
310 310 308 309 309 310 311 309 298 292 301 299 301 304 302 302 303 304 304 304 303 299 300 303 304 305 306 304 304 303 302 297 295 295 294 298 297 303 308 310 309 310 312 315 317
308 307 307 309 311 310 309 303 291 294 298 303 304 302 299 301 301 302 301 300 303 302 300 297 297 303 305 305 303 303 303 297 291 292 296 297 297 303 310 309 309 313 316 319 319
306 307 309 312 311 310 306 296 294 296 301 303 303 298 298 300 301 301 301 301 304 304 299 298 298 305 305 307 307 303 300 304 298 295 295 299 301 306 309 310 313 314 318 319 322
303 304 310 312 313 309 303 294 298 300 304 305 299 298 296 298 299 299 301 306 306 309 308 302 297 303 307 308 305 305 305 299 300 293 291 296 296 300 306 309 313 314 315 318 320
304 303 310 311 313 309 301 299 300 305 306 304 303 302 299 299 299 299 299 304 306 309 308 307 302 301 304 304 302 304 302 300 300 298 294 293 297 306 308 311 312 313 314 315 317
301 299 307 312 307 302 302 301 301 305 306 303 306 304 300 301 300 300 301 303 307 309 304 308 304 298 299 306 305 305 302 302 298 297 297 296 298 311 311 312 313 313 313 315 317
299 298 308 311 302 300 302 301 304 305 304 304 303 305 306 303 300 302 303 306 307 307 305 307 302 296 297 301 307 305 305 305 302 301 299 296 299 311 311 311 312 312 312 313 315
300 298 306 306 302 300 299 299 300 303 303 304 303 305 305 302 303 301 301 304 305 306 310 312 304 300 294 298 301 301 303 304 302 298 298 299 301 306 309 308 310 310 310 312 313
301 299 299 298 301 299 298 297 297 297 302 303 302 302 302 300 300 299 300 301 303 308 306 305 299 301 301 301 301 301 300 300 299 301 298 300 301 306 307 307 309 311 309 309 310
300 300 302 299 298 298 297 297 297 299 299 300 300 301 301 300 299 298 299 300 300 303 302 304 297 299 295 297 297 295 297 297 297 298 299 300 300 307 308 308 307 310 307 307 308
302 302 301 296 297 297 297 297 298 299 301 302 300 300 300 301 302 304 305 305 303 300 298 298 297 295 289 295 296 291 295 298 300 303 303 299 304 306 305 305 306 308 308 307 308
Wind_Speed
19 19 19 18 18 18 19 20 19 18 17 15 13 12 10 7 4 2 6 4 4 13 8 10 4 4 2 2 1 1 2 1 1 2 3 4 3 5 2 5 4 5 3 7 19
20 20 20 20 19 19 19 20 20 19 17 15 13 10 8 4 2 7 6 6 8 14 10 11 6 6 3 2 1 2 2 4 3 3 2 6 5 11 6 8 6 4 8 17 19
20 21 21 21 22 20 19 19 20 19 17 15 12 9 6 2 4 2 6 9 9 2 5 5 9 3 3 2 2 3 4 2 6 9 4 3 4 7 7 9 9 9 14 18 19
23 23 23 23 23 21 19 20 20 20 17 15 10 7 2 2 2 2 10 10 10 6 6 8 5 4 3 4 2 4 6 5 4 2 4 4 3 6 13 3 5 12 19 20 20
24 24 24 23 23 22 21 21 21 20 17 13 8 5 3 3 2 4 11 11 6 4 6 5 6 4 3 2 4 4 7 5 9 9 7 6 10 7 12 6 7 17 20 20 19
23 23 23 24 24 22 22 21 21 17 14 9 4 3 2 3 2 5 14 11 9 6 5 4 4 3 3 1 4 2 7 13 7 5 3 4 5 6 6 10 15 19 21 20 20
24 24 24 25 25 24 23 22 20 16 9 3 6 3 1 3 3 9 10 3 8 5 5 2 2 1 0 1 2 3 7 9 4 3 2 6 5 12 4 12 14 16 18 19 19
24 25 25 25 26 26 24 23 17 8 5 9 7 1 4 2 6 10 5 5 2 2 3 2 3 2 1 1 1 2 2 6 4 1 2 6 8 3 9 14 14 16 16 18 21
24 25 25 26 27 27 25 21 7 5 7 8 2 1 2 4 3 8 4 5 6 2 2 3 2 2 2 1 1 2 5 3 1 1 1 4 4 2 9 13 14 18 19 18 18
25 26 26 27 28 28 25 6 5 4 3 2 2 3 2 3 3 6 4 9 4 7 3 2 3 2 2 2 5 1 1 1 4 1 5 7 15 13 5 12 16 15 17 19 20
25 26 27 27 28 26 13 1 3 1 1 2 1 2 4 4 1 4 5 5 4 3 4 2 5 7 5 4 2 2 3 6 8 7 4 7 13 13 6 12 16 18 18 20 24
25 26 27 28 26 25 2 5 4 3 8 5 7 6 5 3 2 3 10 7 4 4 4 4 8 7 3 5 6 4 4 8 9 4 7 5 9 10 7 10 16 16 17 22 20
25 25 26 30 30 4 4 7 4 4 4 5 4 3 2 8 3 5 10 5 4 5 5 6 2 7 7 6 7 6 8 4 5 3 4 4 6 4 4 8 9 14 16 19 20
24 23 23 30 1 5 1 3 7 5 3 1 1 3 4 2 3 4 9 3 3 8 7 6 2 6 6 6 8 4 8 7 4 4 3 3 7 5 3 9 10 13 16 18 19
25 23 21 11 7 4 4 9 2 4 2 5 3 5 3 4 2 2 2 2 9 7 5 1 5 5 5 5 9 3 4 3 1 4 3 5 5 2 3 8 11 11 15 16 18
26 23 21 3 2 7 10 10 3 2 1 3 3 1 3 1 1 3 3 3 2 5 3 7 1 5 6 2 8 2 3 2 2 3 5 2 5 4 3 6 5 6 5 9 12
29 27 13 2 2 6 9 2 2 2 4 5 3 4 2 1 2 2 5 8 6 5 5 2 5 2 4 6 3 2 3 5 6 6 6 4 4 9 8 12 5 9 11 12 13
31 23 4 4 5 7 3 1 3 1 2 3 3 2 2 3 2 3 4 4 3 2 1 4 3 4 4 4 2 4 3 5 6 8 10 4 6 6 7 8 5 5 8 9 12
25 3 1 3 2 3 0 2 1 2 3 6 4 1 2 1 1 2 4 3 3 3 4 4 5 2 5 3 4 4 7 2 3 2 4 4 5 11 5 11 11 13 13 15 14
6 4 2 7 3 1 1 2 1 2 4 1 2 1 1 3 1 1 2 4 4 5 4 0 5 2 4 1 3 4 6 3 2 5 11 6 4 8 1 10 11 14 15 16 17
2 2 2 6 3 2 1 1 2 3 4 2 1 1 0 1 1 2 2 2 4 6 3 2 3 1 3 1 3 1 3 2 2 3 9 12 6 4 9 9 9 12 14 16 17
4 1 5 4 1 1 1 1 2 2 4 1 1 1 1 2 2 2 2 2 7 2 1 3 0 4 8 5 4 2 2 3 3 3 1 3 5 8 11 9 9 10 11 13 14
4 4 3 4 0 1 1 2 2 3 4 3 2 2 3 2 1 1 3 1 7 5 3 3 0 6 5 4 4 4 4 4 1 2 7 7 3 7 8 9 9 11 12 12 14
3 3 3 4 3 1 2 2 2 4 2 2 2 0 2 2 4 4 2 1 5 2 5 1 2 6 8 6 3 8 12 7 5 7 12 13 17 12 9 10 9 10 12 12 14
3 2 2 3 3 3 2 2 2 2 4 4 2 4 1 2 1 2 1 2 1 2 2 3 4 4 10 15 15 13 14 16 16 18 15 18 20 9 10 11 10 7 11 13 14
2 2 1 1 3 3 2 0 1 2 4 3 1 2 2 1 2 1 2 1 2 2 2 3 3 1 10 12 13 17 19 20 19 17 18 15 16 4 7 9 9 7 10 12 14
1 1 2 2 1 2 1 1 2 2 3 5 3 0 1 3 4 5 5 6 4 4 1 3 3 2 4 5 6 10 10 9 11 4 4 6 5 7 9 11 13 12 9 13 14
Wind_Direction
354 348 344 341 338 336 336 330 324 323 322 320 322 320 321 314 288 201 238 200 187 144 141 134 113 104 115 95 5 206 185 159 272 199 109 164 195 142 127 166 193 167 141 120 135
350 346 344 340 337 336 331 323 319 319 316 317 322 321 318 299 252 243 244 169 140 148 133 149 140 138 111 98 107 254 231 201 224 178 188 185 211 163 176 171 192 151 89 129 142
348 347 342 339 336 332 323 316 315 315 313 315 319 317 309 235 257 2 153 173 171 185 102 105 122 116 114 168 165 160 251 175 233 233 189 212 223 176 175 199 209 190 151 155 160
348 344 340 336 331 326 319 315 315 314 312 308 310 306 282 230 92 64 135 145 150 131 99 119 123 128 148 173 156 269 253 241 306 153 166 227 170 202 208 229 163 163 163 165 175
345 341 337 331 328 323 322 319 315 311 309 301 295 285 214 247 253 86 135 124 123 128 133 147 156 139 151 151 156 227 284 293 278 294 264 227 205 213 221 204 150 148 161 177 183
341 338 334 329 325 324 324 320 310 308 306 290 255 202 230 237 37 123 143 145 149 138 153 145 159 170 95 180 223 242 269 286 293 297 265 235 214 197 230 164 152 162 172 181 191
339 334 333 329 325 328 326 320 312 311 301 212 177 210 196 260 32 138 139 134 155 147 152 187 139 90 151 196 329 319 298 306 19 7 317 168 159 230 170 167 163 179 177 185 200
337 333 332 330 326 327 330 325 323 330 109 133 153 236 251 64 116 143 143 98 148 91 77 86 163 70 277 345 18 315 271 264 26 77 73 271 220 185 171 173 177 183 184 197 204
336 332 332 330 329 329 333 329 343 92 115 131 134 302 224 139 204 169 181 151 133 127 88 105 119 60 172 161 228 26 258 263 302 356 148 274 278 58 191 200 198 193 191 200 208
335 333 332 332 329 328 331 308 95 123 135 209 255 234 202 132 131 138 179 156 141 130 130 108 78 165 120 223 258 255 263 266 289 122 309 266 263 268 209 224 232 212 204 204 209
335 333 333 331 328 329 338 223 343 185 52 250 358 301 316 306 244 143 171 151 119 151 154 99 208 219 234 198 173 189 264 283 268 260 251 236 265 272 261 229 240 231 213 214 218
334 334 334 329 327 322 277 65 77 340 308 249 255 264 266 350 339 121 162 150 166 170 135 166 244 226 163 181 207 214 262 259 279 237 214 236 256 288 251 250 244 247 233 226 230
333 335 335 327 322 342 347 116 6 192 257 294 202 198 222 178 221 201 183 143 150 156 183 220 210 131 178 189 212 223 230 245 269 278 239 266 246 267 260 267 266 248 248 240 232
332 333 336 329 285 338 287 17 328 202 314 49 140 141 119 190 220 201 188 147 137 213 177 240 192 217 190 222 202 267 208 254 247 240 223 293 284 262 277 274 246 241 237 239 232
328 331 331 329 308 274 357 330 339 221 137 359 78 132 136 205 92 164 153 151 176 173 186 218 183 166 195 230 188 256 174 270 194 168 234 177 258 245 287 281 273 259 244 246 246
325 327 330 142 221 271 319 316 188 240 218 45 89 101 174 206 124 118 160 96 91 165 235 265 235 218 233 211 200 110 203 109 118 170 241 228 254 255 246 274 292 287 304 295 302
323 322 312 201 290 328 308 257 212 214 340 7 0 338 248 109 93 63 163 167 210 190 230 275 237 254 212 250 163 189 260 258 246 234 280 120 218 276 253 262 281 350 6 3 0
324 319 179 231 274 316 265 151 211 60 339 348 342 322 99 4 53 43 99 140 70 46 134 291 276 172 172 204 245 178 219 286 286 276 289 137 236 275 272 32 4 70 41 30 13
321 334 242 314 232 192 189 179 49 185 308 332 300 123 74 60 66 102 68 45 42 14 240 196 259 299 224 237 232 143 221 357 198 131 251 271 253 271 271 73 46 32 12 15 4
325 322 322 341 177 275 95 141 153 254 314 268 313 16 106 8 90 81 107 13 348 31 341 119 280 272 307 287 89 249 133 220 203 251 265 223 262 272 334 42 31 25 12 2 1
330 346 39 349 233 41 160 166 256 256 279 259 282 295 32 44 38 57 63 45 356 335 48 3 257 273 264 227 336 205 214 63 296 270 279 279 268 24 86 53 36 24 9 1 356
338 309 11 312 0 20 130 233 324 304 13 25 79 330 311 54 66 105 120 41 357 304 13 35 223 258 277 308 324 336 54 67 280 252 250 301 267 82 76 55 34 23 6 358 354
355 297 329 295 210 108 317 297 291 341 17 17 87 14 42 96 171 83 120 139 8 41 33 0 40 302 265 177 99 71 86 59 43 226 240 268 269 135 55 29 24 10 5 358 353
326 330 339 49 29 22 9 12 321 11 67 29 12 128 139 124 40 141 147 72 357 48 35 243 217 250 272 296 293 291 292 307 297 266 277 259 286 264 350 8 13 9 2 357 358
1 70 33 5 61 12 328 337 313 6 16 26 82 49 32 160 100 91 57 315 166 61 61 19 263 228 275 285 292 280 274 277 270 267 259 279 280 321 346 350 352 350 358 357 358
354 344 86 281 290 289 4 125 306 12 352 15 53 42 42 100 34 93 6 222 284 83 63 22 269 279 281 276 275 278 280 286 283 280 270 284 279 15 335 337 343 329 348 350 349
69 156 278 58 5 227 156 132 86 333 108 53 330 284 99 62 327 301 279 275 277 289 287 261 241 213 262 346 301 260 266 281 289 45 322 310 7 340 335 341 336 321 328 339 337